[[{"header":{"parameterUnit":"m.s-1","parameterCategory":1,"la1":30.2991,"la2":30.254,"lo1":-89.0895,"lo2":-89.0444,"dy":0.0017,"dx":0.0017,"nx":28,"ny":28,"refTime":"2023-10-30T03:00:00:Z","depth":0,"parameterNumber":2,"parameterNumberName":"U-component_of_WINDS"},"data":[0,0,0,0,0,0,0,0,0,0,0,0,0,0,0,0,0,0,0,0,0,0,0,0,0,0,0,0,0,0,0,0,0,0,0,0,0,0,0,0,0,0,0,0,0,0,0,0,0,0,0,0,0,0,0,0,0,0,-0.0769,-0.077,0,-0.0813,-0.0814,-0.0814,-0.0811,-0.081,-0.081,-0.0809,-0.0855,-0.0857,-0.0859,0,0,0,0,0,0,0,0,0,0,0,0,0,-0.0682,-0.0684,-0.0769,-0.077,-0.077,-0.0813,-0.0814,-0.0814,-0.0811,-0.081,-0.081,-0.0809,-0.0855,-0.0857,-0.0859,0,0,0,0,0,0,0,0,0,0,0,0,0,-0.0723,-0.0685,-0.0769,-0.0774,-0.0775,-0.0813,-0.0814,-0.0815,-0.0811,-0.081,-0.0809,-0.0808,-0.0854,-0.0857,-0.0859,-0.0896,0,0,-0.0868,-0.0869,0,0,0,0,0,0,0,0,-0.072,-0.0726,-0.0773,-0.0774,-0.0775,-0.0806,-0.08,-0.0842,-0.0812,-0.0798,-0.0809,-0.0808,-0.084,-0.0843,-0.0854,-0.0898,-0.09,-0.0868,-0.087,-0.0871,-0.0872,0,0,0,0,0,0,0,-0.0718,-0.0724,-0.0787,-0.0773,-0.0775,-0.0774,-0.0778,-0.0808,-0.0824,-0.0799,-0.0799,-0.0804,-0.084,-0.0851,-0.0855,-0.0901,-0.0868,-0.087,-0.0872,-0.0873,-0.0976,-0.0977,0,0,0,0,0,0,-0.0714,-0.0722,-0.0785,-0.0788,-0.0745,-0.0776,-0.0781,-0.0797,-0.0823,-0.0826,-0.0805,-0.0803,-0.0847,-0.0852,-0.0857,-0.0901,-0.0871,-0.0873,-0.0875,-0.0975,-0.0976,-0.0977,0,0,0,0,0,0,-0.0712,-0.0719,-0.0784,-0.0755,-0.0763,-0.0779,-0.0796,-0.0798,-0.0809,-0.0828,-0.083,-0.0813,-0.0846,-0.0853,-0.0886,-0.0902,-0.0875,-0.0877,-0.0974,-0.0975,-0.0977,-0.099,0,0,0,0,0,0,-0.0709,-0.0719,-0.0733,-0.0755,-0.0764,-0.0812,-0.0797,-0.08,-0.0814,-0.0813,-0.0837,-0.084,-0.0846,-0.0882,-0.0889,-0.0906,-0.0879,-0.0972,-0.0974,-0.0976,-0.0988,-0.0992,-0.0995,0,0,0,0,0,-0.0706,-0.0736,-0.0734,-0.0742,-0.0783,-0.0813,-0.0819,-0.0825,-0.0815,-0.083,-0.0841,-0.0839,-0.0899,-0.0885,-0.0893,-0.0911,-0.0971,-0.0974,-0.0976,-0.0987,-0.0991,-0.0995,0,0,0,0,0,0,-0.0716,-0.0739,-0.0737,-0.0774,-0.0792,-0.0813,-0.0832,-0.083,-0.0851,-0.085,-0.0857,-0.0862,-0.0896,-0.0906,-0.089,-0.0947,-0.0934,-0.0938,-0.0939,-0.0944,-0.0947,-0.0944,-0.0882,0,0,0,0,0,-0.0722,-0.0745,-0.0764,-0.0795,-0.0804,-0.0816,-0.083,-0.0833,-0.0852,-0.0859,-0.0873,-0.0891,-0.0914,-0.0929,-0.0951,-0.0989,-0.0994,-0.1005,-0.1008,-0.1011,-0.1015,-0.1035,-0.104,-0.0985,-0.0985,-0.0985,0,0,-0.0736,-0.0751,-0.0766,-0.0797,-0.0811,-0.0835,-0.0822,-0.0848,-0.0865,-0.0863,-0.0895,-0.0906,-0.0926,-0.0962,-0.0978,-0.0972,-0.1031,-0.1014,-0.1016,-0.1019,-0.1038,-0.1043,-0.1048,-0.0987,-0.0987,-0.0986,0,0,-0.0774,-0.0787,-0.0814,-0.0828,-0.0849,-0.0857,-0.0863,-0.0884,-0.089,-0.0922,-0.0921,-0.0941,-0.0981,-0.0995,-0.1008,-0.1048,-0.1046,-0.1055,-0.1073,-0.1092,-0.1097,-0.1101,-0.1115,-0.112,-0.1058,-0.1058,-0.1058,0,-0.0789,-0.0824,-0.0829,-0.0854,-0.0868,-0.0866,-0.0893,-0.0906,-0.0933,-0.0943,-0.0935,-0.0983,-0.0997,-0.1036,-0.1045,-0.1055,-0.1063,-0.1053,-0.1096,-0.11,-0.1103,-0.1117,-0.1122,-0.1059,-0.1059,-0.1059,-0.1059,0,-0.0841,-0.0865,-0.0884,-0.091,-0.0925,-0.0952,-0.096,-0.0975,-0.0977,-0.0985,-0.1017,-0.1033,-0.1058,-0.1067,-0.1069,-0.1105,-0.11,-0.1094,-0.1081,-0.1109,-0.1122,-0.1128,-0.1061,-0.106,-0.106,-0.106,0,0,-0.0888,-0.0914,-0.0921,-0.0932,-0.0954,-0.0972,-0.0998,-0.1021,-0.1034,-0.1052,-0.1074,-0.1106,-0.11,-0.1114,-0.1117,-0.1134,-0.1164,-0.1125,-0.1126,-0.1132,-0.1204,-0.1209,-0.1215,-0.1162,-0.1163,-0.1164,-0.1203,0,-0.0928,-0.0973,-0.0977,-0.1018,-0.104,-0.1036,-0.1058,-0.1074,-0.1082,-0.1101,-0.1109,-0.1132,-0.1122,-0.1131,-0.1147,-0.1157,-0.1179,-0.1154,-0.1183,-0.1184,-0.1178,-0.1222,-0.1228,-0.1264,-0.1208,-0.1209,-0.1209,0,-0.0981,-0.0999,-0.1042,-0.1059,-0.1069,-0.1088,-0.111,-0.1128,-0.1145,-0.1149,-0.1164,-0.1164,-0.119,-0.1174,-0.121,-0.1193,-0.1204,-0.1211,-0.1212,-0.1216,-0.1199,-0.1228,-0.1276,-0.1281,-0.1217,-0.1217,-0.1216,0,-0.1011,-0.1047,-0.1077,-0.1086,-0.1107,-0.1121,-0.113,-0.1146,-0.1159,-0.1177,-0.1186,-0.1207,-0.1219,-0.1235,-0.124,-0.1229,-0.1275,-0.126,-0.1279,-0.1279,-0.1291,-0.129,-0.1342,-0.1297,-0.1297,-0.1296,-0.1296,0,-0.1056,-0.1082,-0.109,-0.1109,-0.1138,-0.1141,-0.117,-0.1178,-0.1192,-0.1212,-0.121,-0.1228,-0.1234,-0.1254,-0.1258,-0.1286,-0.1291,-0.1295,-0.1296,-0.1296,-0.1296,-0.1305,-0.1303,-0.1298,-0.1298,-0.1297,-0.1297,0,-0.1095,-0.1102,-0.1134,-0.115,-0.1155,-0.1176,-0.1189,-0.1207,-0.1213,-0.1238,-0.1244,-0.1254,-0.1276,-0.1283,-0.131,-0.1313,-0.1346,-0.1345,-0.1341,-0.1341,-0.136,-0.1358,-0.1419,-0.1428,-0.1377,-0.1377,-0.1377,0,-0.1124,-0.1144,-0.1162,-0.1174,-0.1184,-0.1205,-0.1218,-0.1222,-0.1236,-0.1255,-0.127,-0.1292,-0.131,-0.1346,-0.1355,-0.1376,-0.1375,-0.1395,-0.1378,-0.1377,-0.1376,-0.1375,-0.1376,-0.1399,-0.1399,-0.14,-0.14,0,-0.1174,-0.1176,-0.1195,-0.1215,-0.123,-0.1246,-0.1261,-0.1272,-0.1278,-0.1293,-0.1316,-0.1329,-0.1356,-0.1378,-0.1398,-0.1407,-0.1405,-0.1405,-0.141,-0.1411,-0.1408,-0.141,-0.135,-0.1404,-0.1403,-0.1403,-0.1403,-0.1403,-0.121,-0.1227,-0.1241,-0.1262,-0.1274,-0.1287,-0.1304,-0.1312,-0.1331,-0.1353,-0.1353,-0.1378,-0.1392,-0.1419,-0.1429,-0.1448,-0.1442,-0.145,-0.1452,-0.1454,-0.1456,-0.1403,-0.1451,-0.1451,-0.1451,-0.1451,-0.1451,0,-0.126,-0.1269,-0.1288,-0.1308,-0.1324,-0.1319,-0.1335,-0.1349,-0.137,-0.1384,-0.1401,-0.1426,-0.1446,-0.1457,-0.1477,-0.149,-0.1489,-0.1495,-0.1494,-0.1496,-0.146,-0.1453,-0.1495,-0.1495,-0.1495,-0.1495,-0.1495,-0.1495,-0.1288,-0.1316,-0.132,-0.1353,-0.1362,-0.1385,-0.1395,-0.1407,-0.1418,-0.1446,-0.1462,-0.1469,-0.1481,-0.1501,-0.1519,-0.1521,-0.1529,-0.1536,-0.1538,-0.1504,-0.1499,-0.1495,-0.1489,-0.1537,-0.1537,-0.1573,-0.1573,-0.1573]},{"header":{"parameterUnit":"m.s-1","parameterCategory":1,"la1":30.2991,"la2":30.254,"lo1":-89.0895,"lo2":-89.0444,"dy":0.0017,"dx":0.0017,"nx":28,"ny":28,"refTime":"2023-10-30T03:00:00:Z","depth":0,"parameterNumber":3,"parameterNumberName":"V-component_of_WINDS"},"data":[0,0,0,0,0,0,0,0,0,0,0,0,0,0,0,0,0,0,0,0,0,0,0,0,0,0,0,0,0,0,0,0,0,0,0,0,0,0,0,0,0,0,0,0,0,0,0,0,0,0,0,0,0,0,0,0,0,0,-8.2617,-8.2619,0,-8.2772,-8.2774,-8.2776,-8.2714,-8.271,-8.2706,-8.2703,-8.2853,-8.286,-8.2868,0,0,0,0,0,0,0,0,0,0,0,0,0,-8.226,-8.2267,-8.2617,-8.2619,-8.2621,-8.2772,-8.2774,-8.2776,-8.2714,-8.271,-8.2705,-8.2701,-8.2851,-8.2859,-8.2868,0,0,0,0,0,0,0,0,0,0,0,0,0,-8.2415,-8.2269,-8.2617,-8.2609,-8.2609,-8.2772,-8.2774,-8.2777,-8.2715,-8.271,-8.2704,-8.2699,-8.2848,-8.2859,-8.2869,-8.3046,0,0,-8.2903,-8.2908,0,0,0,0,0,0,0,0,-8.2406,-8.2428,-8.2608,-8.2609,-8.2611,-8.2718,-8.2703,-8.2867,-8.2716,-8.2675,-8.2703,-8.2696,-8.2812,-8.2826,-8.2866,-8.3053,-8.306,-8.2904,-8.2911,-8.2916,-8.2919,0,0,0,0,0,0,0,-8.2395,-8.2421,-8.2678,-8.261,-8.2612,-8.2594,-8.2611,-8.2734,-8.2772,-8.2678,-8.2674,-8.2693,-8.2812,-8.2856,-8.2869,-8.3062,-8.2904,-8.2914,-8.2921,-8.2925,-8.3402,-8.3408,0,0,0,0,0,0,-8.2385,-8.2412,-8.2673,-8.2683,-8.2493,-8.2605,-8.2623,-8.2689,-8.277,-8.2778,-8.2698,-8.269,-8.284,-8.2857,-8.2875,-8.3087,-8.2916,-8.2926,-8.2932,-8.3396,-8.3403,-8.341,0,0,0,0,0,0,-8.2378,-8.2409,-8.2667,-8.2547,-8.2578,-8.2617,-8.2692,-8.2695,-8.2739,-8.2786,-8.2791,-8.2737,-8.2836,-8.2859,-8.3005,-8.3092,-8.2931,-8.2941,-8.3389,-8.3398,-8.3406,-8.3514,0,0,0,0,0,0,-8.2368,-8.2407,-8.2476,-8.2549,-8.2585,-8.2797,-8.2697,-8.2702,-8.2759,-8.275,-8.2823,-8.283,-8.2834,-8.2989,-8.3016,-8.3104,-8.295,-8.3381,-8.3393,-8.3404,-8.3503,-8.3526,-8.3545,0,0,0,0,0,-8.2356,-8.2499,-8.248,-8.2512,-8.2673,-8.2803,-8.2823,-8.2826,-8.2767,-8.2836,-8.2865,-8.2828,-8.3078,-8.3004,-8.3034,-8.3127,-8.3376,-8.339,-8.3403,-8.3494,-8.3521,-8.3545,0,0,0,0,0,0,-8.2432,-8.2508,-8.2488,-8.266,-8.2726,-8.2792,-8.2879,-8.2856,-8.2937,-8.2925,-8.2924,-8.294,-8.3091,-8.3123,-8.304,-8.3302,-8.3217,-8.3238,-8.3276,-8.3303,-8.3324,-8.3312,-8.2959,0,0,0,0,0,-8.247,-8.2571,-8.2631,-8.2776,-8.2811,-8.284,-8.2896,-8.2893,-8.296,-8.2987,-8.3027,-8.3091,-8.3184,-8.3245,-8.3333,-8.3507,-8.3522,-8.3586,-8.3607,-8.3624,-8.3641,-8.3736,-8.3765,-8.3454,-8.3454,-8.3454,0,0,-8.2547,-8.2601,-8.2664,-8.2793,-8.2844,-8.2947,-8.2863,-8.2975,-8.3051,-8.3003,-8.3144,-8.3176,-8.3247,-8.3408,-8.3481,-8.3439,-8.3731,-8.3641,-8.3655,-8.3663,-8.3753,-8.3782,-8.3808,-8.3463,-8.3462,-8.346,0,0,-8.274,-8.2792,-8.2919,-8.2973,-8.3052,-8.307,-8.3101,-8.3171,-8.3192,-8.3334,-8.33,-8.3388,-8.3549,-8.3601,-8.3649,-8.3864,-8.3832,-8.3892,-8.4002,-8.4094,-8.4119,-8.414,-8.4217,-8.4244,-8.3909,-8.391,-8.391,0,-8.2826,-8.2982,-8.2987,-8.3103,-8.316,-8.3124,-8.3252,-8.3302,-8.3405,-8.3444,-8.3397,-8.3598,-8.3643,-8.3816,-8.3869,-8.3909,-8.3942,-8.3884,-8.4115,-8.4137,-8.4157,-8.423,-8.4259,-8.3916,-8.3916,-8.3915,-8.3914,0,-8.3083,-8.3192,-8.3285,-8.3389,-8.3456,-8.3577,-8.3598,-8.3665,-8.3657,-8.3679,-8.3824,-8.3878,-8.3976,-8.4017,-8.4008,-8.4189,-8.4161,-8.4115,-8.4029,-8.4194,-8.4262,-8.429,-8.3926,-8.3924,-8.3922,-8.392,0,0,-8.3328,-8.3435,-8.3469,-8.3516,-8.3601,-8.3684,-8.3802,-8.3902,-8.396,-8.4031,-8.413,-8.4267,-8.4226,-8.428,-8.4277,-8.4358,-8.4525,-8.4302,-8.4303,-8.4341,-8.4726,-8.476,-8.4793,-8.4504,-8.451,-8.4514,-8.472,0,-8.3529,-8.3741,-8.3749,-8.3941,-8.4042,-8.401,-8.4113,-8.4175,-8.42,-8.4286,-8.4311,-8.4409,-8.4347,-8.438,-8.4458,-8.4488,-8.4602,-8.4473,-8.4594,-8.4598,-8.4577,-8.4828,-8.4865,-8.5057,-8.4747,-8.4751,-8.4755,0,-8.379,-8.3875,-8.4078,-8.415,-8.4192,-8.4286,-8.4378,-8.4462,-8.4531,-8.4543,-8.4604,-8.459,-8.4709,-8.462,-8.4784,-8.4696,-8.4746,-8.4767,-8.4775,-8.4786,-8.4686,-8.4846,-8.5118,-8.5147,-8.4797,-8.4793,-8.479,0,-8.3949,-8.4113,-8.4256,-8.4297,-8.4384,-8.445,-8.4489,-8.4553,-8.4613,-8.4692,-8.4731,-8.4822,-8.4872,-8.4941,-8.4951,-8.4886,-8.5115,-8.5027,-8.5127,-8.5127,-8.5176,-8.5173,-8.546,-8.5209,-8.5208,-8.5208,-8.5207,0,-8.4172,-8.4298,-8.4329,-8.4417,-8.4556,-8.4563,-8.47,-8.4733,-8.4791,-8.4883,-8.4859,-8.4946,-8.4954,-8.5042,-8.505,-8.5184,-8.5206,-8.5217,-8.5218,-8.522,-8.5218,-8.5252,-8.5239,-8.5215,-8.5214,-8.5212,-8.5211,0,-8.4372,-8.4399,-8.4553,-8.4624,-8.4644,-8.4744,-8.4803,-8.4886,-8.4909,-8.5026,-8.5054,-8.5088,-8.5191,-8.5208,-8.5328,-8.5333,-8.5494,-8.548,-8.5471,-8.547,-8.5568,-8.5559,-8.5887,-8.593,-8.5651,-8.5654,-8.5656,0,-8.4513,-8.4609,-8.4692,-8.4754,-8.4797,-8.4896,-8.4958,-8.4968,-8.5032,-8.5119,-8.5191,-8.5292,-8.5374,-8.5539,-8.5573,-8.5665,-8.5653,-8.5762,-8.5666,-8.5665,-8.5655,-8.5649,-8.5658,-8.578,-8.5783,-8.5785,-8.5787,0,-8.4759,-8.4768,-8.4859,-8.4956,-8.5031,-8.5107,-8.5178,-8.5229,-8.5248,-8.5321,-8.5428,-8.5492,-8.5616,-8.5716,-8.5807,-8.5843,-8.5819,-8.5818,-8.5845,-8.5848,-8.5839,-8.5845,-8.5521,-8.581,-8.5807,-8.5806,-8.5805,-8.5804,-8.4934,-8.5018,-8.5091,-8.5193,-8.5249,-8.5316,-8.5399,-8.5433,-8.5523,-8.5627,-8.5627,-8.5743,-8.5809,-8.593,-8.5973,-8.6062,-8.6027,-8.6067,-8.6078,-8.6087,-8.6097,-8.5826,-8.6079,-8.6078,-8.6078,-8.6077,-8.6077,0,-8.5179,-8.5224,-8.5319,-8.5421,-8.5502,-8.5475,-8.5553,-8.5621,-8.5725,-8.579,-8.5872,-8.5994,-8.6092,-8.6134,-8.6229,-8.6293,-8.6284,-8.6317,-8.6312,-8.6321,-8.6123,-8.609,-8.6323,-8.6323,-8.6323,-8.6323,-8.6323,-8.6323,-8.5316,-8.5458,-8.5476,-8.5644,-8.5688,-8.5805,-8.5852,-8.5913,-8.5965,-8.6105,-8.6187,-8.6215,-8.6271,-8.637,-8.6457,-8.6467,-8.6503,-8.6542,-8.6546,-8.636,-8.6335,-8.6311,-8.628,-8.655,-8.655,-8.6737,-8.6738,-8.674]}]]